User: anonymous   Login
Location: Unspecified
(0.0000°N, 0.0000°E)
Time: 12:48:32
(UTC+00:00)
Language:

Tiros 1 despin weight - Orbit

View from above orbital plane
View from above orbital plane
View from above satellite
View from above satellite

Ground track
Ground track

The orbit data is extracted from the following two-line orbital elements,

1   115U 60002D   22280.12503848  .00003965  00000-0  48441-3 0  9997
2   115  48.1647 184.8088 0034001 359.5514   0.5363 14.84708055337974
Epoch (UTC): 07 October 2022 03:00:03
Eccentricity: 0.0034001
inclination: 48.1647°
perigee height: 591 km
apogee height: 638 km
right ascension of ascending node: 184.8088°
argument of perigee: 359.5514°
revolutions per day: 14.84708055
mean anomaly at epoch: 0.5363°
orbit number at epoch: 33797

The dashed part of the orbit path shows where the satellite is in the earth's shadow,  

DLR